{"data":{"norad_id":57633,"epoch":"2026-05-25T01:19:42.843072Z","epoch_age_seconds":77093,"freshness":"FRESH","line1":"1 57633U 23122B   26145.05535698 -.00000066  00000+0  71177-5 0  9993","line2":"2 57633  43.0038  21.4420 0001059 203.8170 156.2633 15.27574056153886","mean_motion":15.27574056,"eccentricity":0.0001059,"inclination_deg":43.0038,"raan_deg":21.442,"arg_perigee_deg":203.817,"mean_anomaly_deg":156.2633,"bstar":7.1177e-6,"rev_number":15388,"period_min":94.26711551849,"perigee_km":482.34029307927,"apogee_km":483.79349606415,"semimajor_km":6861.2038945717,"source":"CELESTRAK","updated_at":"2026-05-25T13:38:18.362064Z"}}